Time,TemperatureF,DewpointF,PressureIn,WindDirection,WindDirectionDegrees,WindSpeedMPH,WindSpeedGustMPH,Humidity,HourlyPrecipIn,Conditions,Clouds,dailyrainin,SolarRadiationWatts/m^2,SoftwareType,DateUTC
2013-08-13 00:01:00,62.0,32.0,-100.00,NE,40,3.0,8.0,32,0.00,,,0.00,0.000000,,2013-08-13 06:01:00,
2013-08-13 00:11:00,62.0,32.0,-100.00,NE,40,3.0,8.0,32,0.00,,,0.00,0.000000,,2013-08-13 06:11:00,
2013-08-13 00:42:00,60.0,33.0,-100.00,East,85,4.0,7.0,36,0.00,,,0.00,0.000000,,2013-08-13 06:42:00,
2013-08-13 00:52:00,60.0,33.0,-100.00,East,85,4.0,7.0,36,0.00,,,0.00,0.000000,,2013-08-13 06:52:00,
2013-08-13 01:01:00,60.0,33.0,-100.00,East,85,4.0,7.0,36,0.00,,,0.00,0.000000,,2013-08-13 07:01:00,
2013-08-13 01:11:00,60.0,33.0,-100.00,East,85,4.0,7.0,36,0.00,,,0.00,0.000000,,2013-08-13 07:11:00,
2013-08-13 01:42:00,61.0,32.0,-100.00,NE,47,3.0,8.0,33,0.00,,,0.00,0.000000,,2013-08-13 07:42:00,
2013-08-13 01:52:00,61.0,32.0,-100.00,NE,47,3.0,8.0,33,0.00,,,0.00,0.000000,,2013-08-13 07:52:00,
2013-08-13 02:01:00,61.0,32.0,-100.00,NE,47,3.0,8.0,33,0.00,,,0.00,0.000000,,2013-08-13 08:01:00,
2013-08-13 02:11:00,61.0,32.0,-100.00,NE,47,3.0,8.0,33,0.00,,,0.00,0.000000,,2013-08-13 08:11:00,
2013-08-13 02:42:00,62.0,33.0,-100.00,North,355,3.0,8.0,34,0.00,,,-99.99,0.000000,,2013-08-13 08:42:00,
2013-08-13 03:43:00,58.0,35.0,-100.00,NW,323,3.0,4.0,42,-99.99,,,0.00,0.000000,,2013-08-13 09:43:00,
2013-08-13 03:53:00,58.0,35.0,-100.00,NW,323,3.0,4.0,42,-99.99,,,0.00,0.000000,,2013-08-13 09:53:00,
2013-08-13 04:03:00,58.0,35.0,-100.00,NW,323,3.0,4.0,42,-99.99,,,0.00,0.000000,,2013-08-13 10:03:00,
2013-08-13 04:12:00,58.0,35.0,-100.00,NW,323,3.0,4.0,42,-99.99,,,0.00,0.000000,,2013-08-13 10:12:00,
2013-08-13 04:43:00,56.0,36.0,-100.00,West,278,3.0,5.0,46,-99.99,,,0.00,0.000000,,2013-08-13 10:43:00,
2013-08-13 04:52:00,56.0,36.0,-100.00,West,278,3.0,5.0,46,-99.99,,,0.00,0.000000,,2013-08-13 10:52:00,
2013-08-13 05:02:00,56.0,36.0,-100.00,West,278,3.0,5.0,46,-99.99,,,0.00,0.000000,,2013-08-13 11:02:00,
2013-08-13 05:11:00,56.0,36.0,-100.00,West,278,3.0,5.0,46,-99.99,,,0.00,0.000000,,2013-08-13 11:11:00,
2013-08-13 05:42:00,57.0,36.0,-100.00,NNE,19,3.0,8.0,45,0.00,,,0.00,0.000000,,2013-08-13 11:42:00,
2013-08-13 05:52:00,57.0,36.0,-100.00,NNE,19,3.0,8.0,45,0.00,,,0.00,0.000000,,2013-08-13 11:52:00,
2013-08-13 06:01:00,57.0,36.0,-100.00,NNE,19,3.0,8.0,45,0.00,,,0.00,0.000000,,2013-08-13 12:01:00,
2013-08-13 06:12:00,57.0,36.0,-100.00,NNE,19,3.0,8.0,45,0.00,,,0.00,0.000000,,2013-08-13 12:12:00,
2013-08-13 06:42:00,58.0,36.0,-100.00,NNE,20,2.0,6.0,43,0.00,,,0.00,0.000000,,2013-08-13 12:42:00,
2013-08-13 06:52:00,58.0,36.0,-100.00,NNE,20,2.0,6.0,43,0.00,,,0.00,0.000000,,2013-08-13 12:52:00,
2013-08-13 07:01:00,58.0,36.0,-100.00,NNE,20,2.0,6.0,43,0.00,,,0.00,0.000000,,2013-08-13 13:01:00,
2013-08-13 07:11:00,58.0,36.0,-100.00,NNE,20,2.0,6.0,43,0.00,,,0.00,0.000000,,2013-08-13 13:11:00,
2013-08-13 07:42:00,56.0,36.0,-100.00,NNE,29,4.0,6.0,46,0.00,,,0.00,0.000000,,2013-08-13 13:42:00,
2013-08-13 07:52:00,56.0,36.0,-100.00,NNE,29,4.0,6.0,46,0.00,,,0.00,0.000000,,2013-08-13 13:52:00,
2013-08-13 08:02:00,56.0,36.0,-100.00,NNE,29,4.0,6.0,46,0.00,,,0.00,0.000000,,2013-08-13 14:02:00,
2013-08-13 08:11:00,56.0,36.0,-100.00,NNE,29,4.0,6.0,46,0.00,,,0.00,0.000000,,2013-08-13 14:11:00,
2013-08-13 08:42:00,58.0,36.0,-100.00,NNE,25,2.0,5.0,44,0.00,,,0.00,14.000000,,2013-08-13 14:42:00,
2013-08-13 08:52:00,58.0,36.0,-100.00,NNE,25,2.0,5.0,44,0.00,,,0.00,14.000000,,2013-08-13 14:52:00,
2013-08-13 09:02:00,58.0,36.0,-100.00,NNE,25,2.0,5.0,44,0.00,,,0.00,14.000000,,2013-08-13 15:02:00,
2013-08-13 09:11:00,58.0,36.0,-100.00,NNE,25,2.0,5.0,44,0.00,,,0.00,14.000000,,2013-08-13 15:11:00,
2013-08-13 09:44:00,59.0,38.0,-100.00,ESE,119,2.0,4.0,46,0.00,,,0.00,90.000000,,2013-08-13 15:44:00,
2013-08-13 09:54:00,59.0,38.0,-100.00,ESE,119,2.0,4.0,46,0.00,,,0.00,90.000000,,2013-08-13 15:54:00,
2013-08-13 10:03:00,59.0,38.0,-100.00,ESE,119,2.0,4.0,46,0.00,,,0.00,90.000000,,2013-08-13 16:03:00,
2013-08-13 10:13:00,59.0,38.0,-100.00,ESE,119,2.0,4.0,46,0.00,,,0.00,90.000000,,2013-08-13 16:13:00,
2013-08-13 10:14:00,56.0,40.0,-100.00,West,274,2.0,4.0,55,0.00,,,0.00,85.000000,,2013-08-13 16:14:00,
2013-08-13 10:45:00,56.0,40.0,-100.00,West,274,2.0,4.0,55,0.00,,,0.00,85.000000,,2013-08-13 16:45:00,
2013-08-13 10:54:00,56.0,40.0,-100.00,West,274,2.0,4.0,55,0.00,,,0.00,85.000000,,2013-08-13 16:54:00,
2013-08-13 11:05:00,56.0,40.0,-100.00,West,274,2.0,4.0,55,0.00,,,0.00,85.000000,,2013-08-13 17:05:00,
2013-08-13 11:14:00,60.0,41.0,-100.00,SSW,210,2.0,6.0,50,0.00,,,0.00,303.000000,,2013-08-13 17:14:00,
2013-08-13 11:46:00,-999.0,-99.9,-100.00,SSW,210,2.0,6.0,-999,0.00,,,0.00,303.000000,,2013-08-13 17:46:00,
2013-08-13 11:56:00,60.0,41.0,-100.00,SSW,210,2.0,6.0,50,0.00,,,0.00,303.000000,,2013-08-13 17:56:00,
2013-08-13 12:05:00,60.0,41.0,-100.00,SSW,210,2.0,6.0,50,0.00,,,0.00,303.000000,,2013-08-13 18:05:00,
2013-08-13 12:14:00,67.0,41.0,-100.00,South,182,4.0,8.0,38,0.00,,,0.00,690.000000,,2013-08-13 18:14:00,
2013-08-13 12:44:00,67.0,41.0,-100.00,South,182,4.0,8.0,38,0.00,,,0.00,690.000000,,2013-08-13 18:44:00,
2013-08-13 12:56:00,67.0,41.0,-100.00,South,182,4.0,8.0,38,0.00,,,0.00,690.000000,,2013-08-13 18:56:00,
2013-08-13 13:04:00,67.0,41.0,-100.00,South,182,4.0,8.0,38,0.00,,,0.00,690.000000,,2013-08-13 19:04:00,
2013-08-13 13:14:00,69.0,44.0,-100.00,SW,220,3.0,9.0,40,0.00,,,0.00,855.000000,,2013-08-13 19:14:00,
2013-08-13 13:44:00,69.0,44.0,-100.00,SW,220,3.0,9.0,40,0.00,,,0.00,855.000000,,2013-08-13 19:44:00,
2013-08-13 13:55:00,69.0,44.0,-100.00,SW,220,3.0,9.0,40,0.00,,,0.00,855.000000,,2013-08-13 19:55:00,
2013-08-13 14:04:00,69.0,44.0,-100.00,SW,220,3.0,9.0,40,0.00,,,0.00,855.000000,,2013-08-13 20:04:00,
2013-08-13 14:45:00,73.0,41.0,-100.00,SW,225,3.0,7.0,31,0.00,,,0.00,759.000000,,2013-08-13 20:45:00,
2013-08-13 14:53:00,73.0,41.0,-100.00,SW,225,3.0,7.0,31,0.00,,,0.00,759.000000,,2013-08-13 20:53:00,
2013-08-13 15:01:00,73.0,41.0,-100.00,SW,225,3.0,7.0,31,0.00,,,0.00,759.000000,,2013-08-13 21:01:00,
2013-08-13 15:11:00,73.0,41.0,-100.00,SW,225,3.0,7.0,31,0.00,,,0.00,759.000000,,2013-08-13 21:11:00,
2013-08-13 15:46:00,75.0,40.0,-100.00,SSW,205,4.0,8.0,28,0.00,,,0.00,900.000000,,2013-08-13 21:46:00,
2013-08-13 15:54:00,75.0,40.0,-100.00,SSW,205,4.0,8.0,28,0.00,,,0.00,900.000000,,2013-08-13 21:54:00,
2013-08-13 16:03:00,75.0,40.0,-100.00,SSW,205,4.0,8.0,28,0.00,,,0.00,900.000000,,2013-08-13 22:03:00,
2013-08-13 16:13:00,75.0,40.0,-100.00,SSW,205,4.0,8.0,28,0.00,,,0.00,900.000000,,2013-08-13 22:13:00,
2013-08-13 16:50:00,79.0,37.0,-100.00,SSW,210,3.0,9.0,22,0.00,,,0.00,969.000000,,2013-08-13 22:50:00,
2013-08-13 16:56:00,79.0,37.0,-100.00,SSW,210,3.0,9.0,22,0.00,,,0.00,969.000000,,2013-08-13 22:56:00,
2013-08-13 17:03:00,79.0,37.0,-100.00,SSW,210,3.0,9.0,22,0.00,,,0.00,969.000000,,2013-08-13 23:03:00,
2013-08-13 17:13:00,79.0,37.0,-100.00,SSW,210,3.0,9.0,22,0.00,,,0.00,969.000000,,2013-08-13 23:13:00,
2013-08-13 19:42:00,73.0,36.0,-100.00,SW,217,3.0,7.0,26,-99.99,,,0.00,359.000000,,2013-08-14 01:42:00,
2013-08-13 19:52:00,73.0,36.0,-100.00,SW,217,3.0,7.0,26,-99.99,,,0.00,359.000000,,2013-08-14 01:52:00,
2013-08-13 20:02:00,73.0,36.0,-100.00,SW,217,3.0,7.0,26,-99.99,,,0.00,359.000000,,2013-08-14 02:02:00,
2013-08-13 20:42:00,67.0,35.0,-100.00,WSW,251,1.0,6.0,30,-99.99,,,0.00,195.000000,,2013-08-14 02:42:00,
2013-08-13 20:52:00,67.0,35.0,-100.00,WSW,251,1.0,6.0,30,-99.99,,,0.00,195.000000,,2013-08-14 02:52:00,
2013-08-13 21:01:00,67.0,35.0,-100.00,WSW,251,1.0,6.0,30,-99.99,,,0.00,195.000000,,2013-08-14 03:01:00,
2013-08-13 21:11:00,67.0,35.0,-100.00,WSW,251,1.0,6.0,30,-99.99,,,0.00,195.000000,,2013-08-14 03:11:00,
2013-08-13 21:43:00,64.0,35.0,-100.00,West,266,2.0,7.0,34,0.00,,,0.00,73.000000,,2013-08-14 03:43:00,
2013-08-13 21:53:00,64.0,35.0,-100.00,West,266,2.0,7.0,34,0.00,,,0.00,73.000000,,2013-08-14 03:53:00,
2013-08-13 22:03:00,64.0,35.0,-100.00,West,266,2.0,7.0,34,0.00,,,0.00,73.000000,,2013-08-14 04:03:00,
2013-08-13 22:12:00,64.0,35.0,-100.00,West,266,2.0,7.0,34,0.00,,,0.00,73.000000,,2013-08-14 04:12:00,
2013-08-13 22:42:00,61.0,32.0,-100.00,NW,318,2.0,4.0,33,0.00,,,0.00,9.000000,,2013-08-14 04:42:00,
2013-08-13 22:52:00,61.0,32.0,-100.00,NW,318,2.0,4.0,33,0.00,,,0.00,9.000000,,2013-08-14 04:52:00,
2013-08-13 23:02:00,61.0,32.0,-100.00,NW,318,2.0,4.0,33,0.00,,,0.00,9.000000,,2013-08-14 05:02:00,
2013-08-13 23:12:00,61.0,32.0,-100.00,NW,318,2.0,4.0,33,0.00,,,0.00,9.000000,,2013-08-14 05:12:00,
2013-08-13 23:42:00,61.0,32.0,-100.00,NNE,24,3.0,4.0,34,0.00,,,0.00,0.000000,,2013-08-14 05:42:00,
2013-08-13 23:52:00,61.0,32.0,-100.00,NNE,24,3.0,4.0,34,0.00,,,0.00,0.000000,,2013-08-14 05:52:00,